Weather History for Yuma MCAS, AZ

Change the Weather History Date:

Friday, January 10, 2014

  Actual Average Record
Temperature  
Mean Temperature 60 °F 58 °F  
Max Temperature 76 °F 69 °F 82 °F (1948)
Min Temperature 43 °F 47 °F 27 °F (1891)
Degree Days  
Heating Degree Days 5 7  
Month to date heating degree days 50 74  
Since 1 July heating degree days 291 378  
Growing Degree Days 10 (Base 50)    
Moisture  
Dew Point 29 °F    
Average Humidity 37    
Maximum Humidity 58    
Minimum Humidity 15    
Precipitation  
Precipitation 0.00 in 0.01 in 0.61 in (1941)
Month to date precipitation 0.00 0.15  
Year to date precipitation 0.00 0.15  
Sea Level Pressure  
Sea Level Pressure 30.07 in    
Wind  
Wind Speed 3 mph (NNE)    
Max Wind Speed 8 mph    
Max Gust Speed 11 mph    
Visibility 10 miles    
Events      
T = Trace of Precipitation, MM = Missing Value Source: NWS Daily Summary

Daily Weather History Graph

Daily Weather History Graph

Search for Another Location

Airport:

Trip Planner

Search our weather history database for the weather conditions in past years. The results will help you decide how hot, cold, wet, or windy it might be!

Date:

Astronomy

Jan. 10, 2014 Rise Set
Actual Time 7:41 AM MST 5:51 PM MST
Civil Twilight 7:14 AM MST 6:17 PM MST
Nautical Twilight 6:44 AM MST 6:48 PM MST
Astronomical Twilight 6:14 AM MST 7:18 PM MST
Moon 1:53 PM MST (1/10) 2:57 AM MST (1/10)
Length of Visible Light 11h 03m
Length of Day
10h 09m
Waxing Gibbous, 75% of the Moon is Illuminated
Jan 10
Waxing Gibbous
Jan 15
Full
Jan 23
Last Quarter
Jan 30
New
Feb 6
First Quarter

Hourly Weather History & Observations

Time (MST) Temp. Windchill Dew Point Humidity Pressure Visibility Wind Dir Wind Speed Gust Speed Precip Events Conditions
12:57 AM 50.0 °F - 28.9 °F 44% 30.03 in 10.0 mi NNE 3.5 mph - N/A   Clear
1:57 AM 48.0 °F - 28.9 °F 48% 30.02 in 10.0 mi SE 3.5 mph - N/A   Clear
2:57 AM 46.9 °F - 28.9 °F 50% 30.03 in 10.0 mi Calm Calm - N/A   Clear
3:57 AM 46.9 °F - 28.9 °F 50% 30.03 in 10.0 mi Calm Calm - N/A   Clear
4:57 AM 44.1 °F 41.5 °F 28.9 °F 55% 30.05 in 10.0 mi West 4.6 mph - N/A   Clear
5:57 AM 44.1 °F - 30.0 °F 58% 30.05 in 10.0 mi Calm Calm - N/A   Clear
6:57 AM 44.1 °F - 30.0 °F 58% 30.06 in 10.0 mi Calm Calm - N/A   Scattered Clouds
7:57 AM 45.0 °F - 28.9 °F 53% 30.08 in 10.0 mi Calm Calm - N/A   Scattered Clouds
8:57 AM 52.0 °F - 30.0 °F 43% 30.11 in 10.0 mi NNE 4.6 mph - N/A   Scattered Clouds
9:57 AM 55.9 °F - 27.0 °F 33% 30.12 in 10.0 mi ENE 4.6 mph - N/A   Partly Cloudy
10:57 AM 63.0 °F - 27.0 °F 26% 30.12 in 10.0 mi NE 8.1 mph - N/A   Scattered Clouds
11:57 AM 66.9 °F - 28.0 °F 23% 30.11 in 10.0 mi NE 3.5 mph - N/A   Scattered Clouds
12:57 PM 71.1 °F - 27.0 °F 19% 30.08 in 10.0 mi NNE 4.6 mph - N/A   Scattered Clouds
1:57 PM 73.0 °F - 26.1 °F 17% 30.05 in 10.0 mi NNE 5.8 mph - N/A   Scattered Clouds
2:57 PM 73.9 °F - 26.1 °F 17% 30.03 in 10.0 mi NE 4.6 mph - N/A   Partly Cloudy
3:57 PM 75.0 °F - 24.1 °F 15% 30.03 in 10.0 mi Calm Calm - N/A   Scattered Clouds
4:57 PM 75.0 °F - 24.1 °F 15% 30.02 in 10.0 mi Calm Calm - N/A   Scattered Clouds
5:57 PM 69.1 °F - 32.0 °F 25% 30.03 in 10.0 mi WSW 5.8 mph - N/A   Scattered Clouds
6:57 PM 66.0 °F - 33.1 °F 29% 30.05 in 10.0 mi West 4.6 mph - N/A   Partly Cloudy
7:57 PM 63.0 °F - 32.0 °F 31% 30.07 in 10.0 mi Calm Calm - N/A   Clear
8:57 PM 57.0 °F - 34.0 °F 42% 30.09 in 10.0 mi Calm Calm - N/A   Partly Cloudy
9:57 PM 57.0 °F - 33.1 °F 40% 30.10 in 10.0 mi Calm Calm - N/A   Partly Cloudy
10:57 PM 55.9 °F - 33.1 °F 42% 30.10 in 10.0 mi ENE 4.6 mph - N/A   Partly Cloudy
11:57 PM 54.0 °F - 32.0 °F 43% 30.11 in 10.0 mi Calm Calm - N/A   Clear